Weather in Vasilyevskiy Mokh

Russia / Tver Oblast     57°00′56″N   35°55′01″E
temp.,
°C
wind,
m/s
gust,
m/s
humid.,
%
clouds,
%
prec.,
mm/h
press.,
hPa
HPBL,
m
3 march, wed
wed300:00−3nnw4128695 0.0 1013671
03:00−4nw4118649 0.0 1016471
06:00−5wnw411900 0.0 1016406
09:00−1wnw5118632 0.0 10161015
12:000wnw51080100 0.1 10141062
15:00+1w51080100 0.1 10131056
18:00−1w51184100 0.0 1010945
21:00−1w51387100 0.1 1008814
4 march, thu
thu400:00+1wsw6129599 0.1 1003940
03:00+1w71497100 1.1 1001988
06:00+1wnw61388100 0.5 10001159
09:00−2nw41079100 1.3 1001855
12:00−1nw4768100 0.0 1001897
15:00−1nw3668100 0.0 10011084
18:00−3nw2283100 0.0 100125
21:00−6n229150 0.0 100227
5 march, fri
fri500:00−7nne119621 0.0 100321
03:00−8wnw119621 0.0 100421
06:00−7wsw129688 0.1 100561
09:00−6nw478594 0.4 1006618
12:00−4nw4675100 0.1 1008978
15:00−4nw4663100 0.3 10091360
18:00−6nw2679100 0.3 1010198
21:00−8wnw249088 0.3 101390
6 march, sat
sat600:00−9nw289450 0.0 1014294
03:00−10nnw379548 0.0 1016317
06:00−12nnw259493 0.0 1017256
09:00−11nw358687 0.1 1017402
12:00−7wnw35634 0.0 1017900
15:00−6w466734 0.0 10161182
18:00−7wsw267998 0.0 1015180
21:00−7sw4117990 0.0 1013563
7 march, sun
sun700:00−6sw61381100 0.0 10081028
03:00−5sw71592100 1.4 10021252
06:00−4sw81792100 1.6 9961334
09:00−2wsw81879100 2.3 9931428
12:00−4wnw51252100 1.3 9931802
15:00−4wnw8127068 1.5 9921795
18:00−6wsw4117278 0.2 993998
21:00−7wnw5117589 0.6 9931308